Regional Weather Roundup
Issued by NWS

Home | Current Version | Previous Version | Text Only | Print | Product List | Glossary Off
Versions: 1 2 3 4 5 6 7 8 9 10 11 12 13 14 15 16 17 18 19 20 21 22 23 24 25 26 27 28 29 30 31 32 33 34 35 36 37 38 39 40 41 42 43 44 45 46 47 48 49 50

000
ASUS45 KBOU 310510
RWRCO

WEATHER ROUNDUP FOR COLORADO
NATIONAL WEATHER SERVICE DENVER/BOULDER CO
1100 PM MDT THU JUL 30 2015

NOTE: "FAIR" INDICATES FEW OR NO CLOUDS BELOW 12000 FEET WITH NO
SIGNIFICANT WEATHER AND/OR OBSTRUCTIONS TO VISIBILITY.

COZ001>005-013-030-031-310600-
...NORTHWEST COLORADO...

CITY           SKY/WX    TMP DP  RH WIND       PRES   REMARKS
CRAIG          CLEAR     55  34  45 CALM      30.34S
HAYDEN         CLEAR     61  27  27 SE5       30.37S
MEEKER         PTCLDY    57  35  43 NE5       30.36R
MOUNT WERNER   NOT AVBL
STEAMBOAT SPGS CLEAR     60  35  38 CALM      30.40R
WALDEN         CLEAR     59  34  38 CALM      30.50F
$$

COZ006>008-011-310600-
...WEST CENTRAL VALLEYS...

CITY           SKY/WX    TMP DP  RH WIND       PRES   REMARKS
GRAND JUNCTION PTCLDY    75  33  21 SE3       30.19R
MONTROSE       PTCLDY    69  36  29 SE9       30.29R
EAGLE          CLEAR     64  32  29 NE6       30.39R
RIFLE          CLEAR     68  32  26 SE7       30.27R
DELTA          PTCLDY    74  33  22 NE3       30.23R
NUCLA          PTCLDY    72  37  28 E7        30.34R
$$

COZ017>023-064>068-310600-
...SOUTHWEST COLORADO...

CITY           SKY/WX    TMP DP  RH WIND       PRES   REMARKS
DURANGO        CLOUDY    62  59  90 CALM      30.43R
CORTEZ         CLEAR     69  54  58 SW15      30.34R
PAGOSA SPRINGS CLOUDY    65  49  56 NE3       30.50S
TELLURIDE      MOCLDY    62  34  35 CALM      30.58S
WOLF CREEK PAS NOT AVBL
$$

COZ009-010-012-014-032>034-037-058>063-310600-
...CENTRAL COLORADO...

CITY           SKY/WX    TMP DP  RH WIND       PRES   REMARKS
ASPEN          PTCLDY    58  35  42 S7        30.46R
BUENA VISTA    PTCLDY    57  51  81 W7        30.54S
COPPER MTN     PTCLDY    55  36  47 S12       30.82S
BERTHOUD PASS  FAIR      43  32  65 E20G28    30.86F
COTTONWOOD PAS PTCLDY    59  46  63 E3        30.68R
GUNNISON       PTCLDY    68  45  42 E10       30.49R
KREMMLING      CLEAR     61  32  33 CALM      30.46S
LEADVILLE      PTCLDY    55  45  68 S6        30.65R
MONARCH PASS   MOCLDY    46  43  87 E20       30.90S
SALIDA         PTCLDY    68  50  51 E7        30.57S
SUNLIGHT       CLEAR     57  27  30 NE3       30.72F
WILKERSON PASS PTCLDY    50  41  71 S5        30.81S
$$

COZ069>075-310600-
...SAN LUIS VALLEY/SANGRE DE CRISTO MOUNTAINS...

CITY           SKY/WX    TMP DP  RH WIND       PRES   REMARKS
ALAMOSA        MOCLDY    62  50  64 S8        30.49R
LA VETA PASS   MOCLDY    52  46  82 MISG      30.69S
SAGUACHE       PTCLDY    59  50  72 SW5       30.53R
$$

COZ035-036-038>040-310600-
...NORTHERN COLORADO FRONT RANGE...

CITY           SKY/WX    TMP DP  RH WIND       PRES   REMARKS
DENVER INTL AP PTCLDY    70  52  52 SE16      30.33R
DMNS CITY PARK   N/A     73  53  50 SE9       30.31S
AURORA         PTCLDY    72  53  52 S16       30.34S
FRONT RANGE AP NOT AVBL
ERIE MUNI ARPT CLEAR     70  53  56 NW6       30.31R
BOULDER MUN AP CLEAR     72  54  53 NW5       30.32S
CENTENNIAL     MOCLDY    70  53  54 SE14      30.35S
BROOMFIELD     NOT AVBL
FORT COLLINS   MOCLDY    70  55  60 N7        30.33R
LONGMONT       CLEAR     73  57  57 N6        30.33R
$$

COZ041-046-047-076>085-087-088-310600-
...PIKES PEAK/PALMER DIVIDE AND SOUTHERN FOOTHILLS...

CITY           SKY/WX    TMP DP  RH WIND       PRES   REMARKS
COLO. SPRINGS  MOCLDY    67  53  61 E6        30.43S
A. F. ACADEMY  PTCLDY    65  52  63 NW2       30.44S
ELLICOTT       PTCLDY   N/A N/A N/A E9        30.43R
FALCON         PTCLDY    62  50  64 SE3       30.49S
FORT CARSON    PTCLDY    65  54  67 NE6       30.40R
LIMON          PTCLDY    61  59  93 N5        30.39F
MONUMENT HILL  CLEAR     61  50  67 S12       30.47S
TRINIDAD       MOCLDY    69  58  67 W8        30.36F
$$

COZ042>045-048>051-090-091-310600-
...NORTHEAST COLORADO...

CITY           SKY/WX    TMP DP  RH WIND       PRES   REMARKS
GREELEY ARPT   CLEAR     66  57  72 SE9       30.31S
AKRON          CLEAR     69  51  52 S12       30.31F
BURLINGTON     MOCLDY    70  63  78 S9        30.28S
WRAY           CLEAR     63  57  81 N6        30.27S
STERLING       CLEAR     68  55  64 SW6       30.26S
HOLYOKE        NOT AVBL
FORT MORGAN    CLEAR     67  55  64 S10       30.31S
$$

COZ086-089-092>099-310600-
...SOUTHEAST COLORADO...

CITY           SKY/WX    TMP DP  RH WIND       PRES   REMARKS
PUEBLO         PTCLDY    77  52  41 E7        30.30R
LA JUNTA       PTCLDY    73  60  63 E7        30.29R
LAMAR          PTCLDY    69  65  86 E7        30.27S
SPRINGFIELD      N/A     69  65  86 E6        30.32R
$$



USA.gov is the U.S. government's official web portal to all federal, state and local government web resources and services.